Regional Weather Roundup
Issued by NWS

Home | Current Version | Previous Version | Text Only | Print | Product List | Glossary Off
Versions: 1 2 3 4 5 6 7 8 9 10 11 12 13 14 15 16 17 18 19 20 21 22 23 24 25 26 27 28 29 30 31 32 33 34 35 36 37 38 39 40 41 42 43 44 45 46 47 48 49 50

000
ASUS43 KFSD 170310
RWRSD

WEATHER ROUNDUP FOR SOUTH DAKOTA
NATIONAL WEATHER SERVICE SIOUX FALLS SD
1000 PM CDT WED AUG 16 2017

NOTE: "FAIR" INDICATES FEW OR NO CLOUDS BELOW 12,000 FEET WITH NO
SIGNIFICANT WEATHER AND/OR OBSTRUCTIONS TO VISIBILITY.


SDZ001>005-009-010-012>017-170400-
NORTHWEST AND NORTH CENTRAL SOUTH DAKOTA

CITY           SKY/WX    TMP DP  RH WIND       PRES   REMARKS
BUFFALO          N/A     68  50  52 SE10      29.89R
FAITH            N/A     68  48  48 SE5       29.95R
MOBRIDGE       PTCLDY    61  59  93 N5        29.88R
$$

SDZ012>016-024>037-041>051-057-063-072>074-170400-
SOUTHWEST AND SOUTH CENTRAL SOUTH DAKOTA

CITY           SKY/WX    TMP DP  RH WIND       PRES   REMARKS
RAPID CTY ARPT CLEAR     64  51  62 SE3       29.99R
PIERRE         CLEAR     61  55  81 NW7       29.89R
CUSTER         CLEAR     57  46  66 CALM      30.13R
ELLSWORTH AFB  CLEAR     67  52  57 SE5       29.99R
PHILIP         CLEAR     63  49  60 CALM      29.95R
PINE RIDGE     CLEAR     61  55  81 NE3       30.02R
SPEARFISH      FAIR      59  48  67 MISG      30.03R
WINNER         FAIR      66  58  75 NW9       29.93R
$$

SDZ004>011-016>023-039-040-170400-
NORTHEAST SOUTH DAKOTA

CITY           SKY/WX    TMP DP  RH WIND       PRES   REMARKS
ABERDEEN       CLOUDY    65  63  93 NW10      29.82S
WATERTOWN      LGT RAIN  65  65 100 N15       29.76R
BROOKINGS      RAIN      65  64  97 N8        29.74R
SISSETON         N/A     66  66 100 N14       29.76R
$$

SDZ017-020-022-023-036>040-048>070-170400-
SOUTHEAST SOUTH DAKOTA

CITY           SKY/WX    TMP DP  RH WIND       PRES   REMARKS
SIOUX FALLS    LGT RAIN  67  67 100 NW3       29.75R FOG
HURON          CLOUDY    67  65  93 NW13      29.81R
CHAMBERLAIN    PTCLDY    66  64  93 W10       29.89R
MITCHELL       LGT RAIN  67  66  97 NW13      29.82R
YANKTON        CLOUDY    66  63  90 W14G22    29.81R
$$

ABBREVIATIONS USED IN REMARKS
   TC - TEMPERATURE IN CELSIUS
  WCI - WIND CHILL INDEX
   HX - HEAT INDEX
  VSB - VISIBILITY





USA.gov is the U.S. government's official web portal to all federal, state and local government web resources and services.